Flag for U.S.A. Weather past 2 weeks in Missoula, Montana, U.S.A.

Now
38 °F

Sunny.


Feels Like: 34 °F
Forecast: 13 / 46 °F
Wind: 5 mph from South

Location: Missoula International Airport

Current Time: Mar 4, 2015 at 5:33:08 PM

Latest Report: Mar 4, 2015 at 4:53 PM


Visibility: 10 mi

Pressure: 30.30 "Hg

Humidity: 37%

Dew point: 14 °F

Location of MissoulaLocation

Historic Weather in Missoula — Graph

°F

Missoula temperature yesterday

Maximum temperature yesterday: 29 °F (at 3:53 PM)
Minimum temperature yesterday: 14 °F (at 7:53 AM)
Average temperature yesterday: 21 °F

Past Weeks' High & Low Weather Summary

 TemperatureHumidityPressure
High48 °F (Feb 19, 12:53 PM)100% (Feb 20, 12:53 AM)30.69 "Hg (Feb 20, 12:53 AM)
Low7 °F (Feb 22, 6:53 AM)25% (Mar 1, 4:53 PM)29.83 "Hg (Mar 2, 3:03 PM)
Average28 °F62%30.27 "Hg
* Reported Feb 17 3:53 PM — Mar 4 3:53 PM, Missoula, Weather by CustomWeather, © 2015

Note: Actual official high and low records may vary slightly from our data, if they occured in-between our weather recording intervals... More about our weather records

Advertising

Missoula weather history for previous 24 hours

 ConditionsComfort  
Time TempWeatherWind HumidityBarometerVisibility
3:53 PM
Wed, Mar 4
38 °FSunny.3 mph36%30.30 "Hg10 mi
2:53 PM36 °FSunny.No wind37%30.32 "Hg10 mi
1:53 PM34 °FSunny.No wind42%30.34 "Hg10 mi
12:53 PM32 °FSunny.No wind41%30.37 "Hg10 mi
11:53 AM28 °FSunny.5 mph56%30.38 "Hg10 mi
10:53 AM24 °FSunny.3 mph65%30.41 "Hg10 mi
9:53 AM20 °FSunny.No wind74%30.42 "Hg10 mi
8:53 AM16 °FSunny.No wind84%30.42 "Hg10 mi
7:53 AM12 °FSunny.No wind88%30.40 "Hg10 mi
6:53 AM11 °FClear.No wind81%30.39 "Hg10 mi
5:53 AM12 °FClear.No wind84%30.37 "Hg10 mi
4:53 AM12 °FClear.No wind88%30.36 "Hg10 mi
3:53 AM14 °FClear.No wind80%30.34 "Hg10 mi
2:53 AM14 °FClear.No wind84%30.34 "Hg10 mi
1:53 AM15 °FClear.6 mph83%30.32 "Hg10 mi
12:53 AM17 °FClear.8 mph80%30.31 "Hg10 mi
11:53 PM
Tue, Mar 3
21 °FOvercast.5 mph68%30.29 "Hg10 mi
10:53 PM22 °FOvercast.3 mph62%30.28 "Hg10 mi
9:53 PM22 °FOvercast.5 mph60%30.26 "Hg10 mi
8:53 PM24 °FPassing clouds.3 mph50%30.24 "Hg10 mi
7:53 PM25 °FOvercast.6 mph46%30.23 "Hg10 mi
6:53 PM26 °FOvercast.8 mph42%30.22 "Hg10 mi
5:53 PM26 °FPartly sunny.10 mph42%30.20 "Hg10 mi
Weather by CustomWeather, © 2015

See weather overviewHow to use our weather pages